Wind_Speed
34 34 33 32 32 33 33 32 32 32 31 32 33 33 33 33 32 31 31 31 31 31 30 28 28 27 26 25 25 25 25 24 22 22 22 21 20 18 16 15 15 15 15 14 14 13 13 12 11 11 10 10 10 10 10 9 8 9 11 11 11 10 9 9 7 7 10 12 13 14 14 15 16 15 15 16 16 17 19 20 20 20 20 21 22
35 35 34 33 33 34 34 33 33 33 33 34 35 35 34 35 34 33 32 33 33 31 30 28 28 28 28 27 27 26 25 25 24 23 22 22 21 19 17 16 15 14 14 13 14 14 14 13 12 11 11 11 11 11 10 9 8 10 12 12 11 9 8 8 7 6 10 14 15 15 15 15 16 16 15 16 17 17 17 18 18 19 20 22 22
35 36 35 34 34 34 35 34 34 34 34 34 35 35 36 37 36 35 34 34 33 31 29 29 29 29 28 28 27 27 26 26 25 24 23 22 22 20 18 17 16 15 14 13 13 13 14 14 13 12 11 11 12 11 10 9 9 12 12 9 7 8 7 7 8 7 10 15 18 18 18 17 18 19 18 17 17 18 18 19 19 19 20 21 21
35 36 36 35 34 35 36 35 35 35 34 34 34 34 36 39 38 37 35 34 33 31 29 29 31 31 30 29 29 28 27 26 25 24 23 22 22 20 18 17 16 16 15 15 15 15 14 15 14 12 12 13 12 10 10 10 11 12 12 10 9 10 9 9 11 11 11 14 19 20 20 20 21 22 21 20 18 19 20 21 21 21 20 20 19
35 36 36 36 36 37 37 36 36 36 35 34 35 35 34 36 38 38 37 34 32 32 31 30 32 33 33 32 31 30 28 27 26 25 23 22 21 20 18 17 16 16 15 15 15 15 14 14 14 13 13 14 12 10 9 10 11 12 12 12 11 10 11 11 13 15 14 15 18 21 21 21 22 22 23 22 20 20 20 20 21 21 21 21 21
36 36 36 37 37 37 38 37 37 38 37 35 36 36 34 34 35 36 38 37 33 33 33 33 33 35 35 34 33 31 29 28 28 26 24 23 21 20 18 17 17 17 16 16 16 15 15 14 14 13 12 12 12 11 9 9 9 10 10 11 10 10 11 12 12 15 16 17 19 21 23 22 20 22 22 20 19 18 19 20 22 22 21 21 21
36 36 37 38 38 37 38 39 39 39 39 37 36 37 36 34 33 35 39 39 36 35 36 35 35 36 35 33 33 32 30 28 28 27 25 23 21 20 19 18 18 18 17 17 17 16 16 15 14 13 13 13 13 13 12 11 11 10 11 13 13 12 12 12 13 15 17 18 19 21 21 20 20 21 20 18 18 18 19 20 22 22 20 19 20
37 38 38 38 37 38 39 39 39 39 39 39 38 38 38 37 35 36 38 38 37 38 40 37 34 34 33 32 31 31 31 29 29 28 26 24 22 21 20 19 19 18 17 17 17 16 15 14 14 14 14 14 14 13 12 12 11 11 13 14 15 14 13 15 16 18 19 19 19 20 20 20 20 20 19 18 18 18 17 17 19 20 20 20 21
38 39 38 37 37 39 39 38 38 38 38 39 39 40 40 39 38 36 37 38 36 37 41 39 35 32 30 30 30 30 31 30 30 31 30 27 25 23 22 21 20 18 17 17 16 16 15 14 14 14 14 14 15 14 13 12 12 13 14 13 13 13 15 17 18 19 20 19 19 20 19 18 18 18 17 17 18 18 18 18 19 19 19 20 21
38 39 39 37 37 38 38 38 38 38 39 40 40 40 40 40 39 37 37 39 36 34 37 36 33 32 30 29 30 30 31 31 32 33 32 30 28 26 24 23 22 20 19 17 16 16 16 16 17 16 15 15 16 16 15 13 14 15 14 14 15 16 18 19 20 21 21 19 18 19 17 17 18 17 17 17 18 19 19 19 18 18 18 18 19
39 39 40 39 38 38 38 37 38 38 39 40 40 39 39 39 39 37 36 37 33 31 31 29 29 32 31 30 31 32 31 32 33 34 32 29 28 26 25 24 23 22 20 19 18 18 17 18 18 17 16 15 15 15 14 14 15 16 17 18 19 21 21 21 22 23 20 18 18 18 18 17 18 18 19 20 19 18 17 16 17 17 16 14 14
40 40 39 38 37 38 38 37 37 37 37 38 38 38 37 36 35 33 33 33 30 27 28 30 31 32 30 29 31 32 32 32 33 33 30 28 27 25 23 22 22 22 21 20 19 19 18 17 17 16 14 11 10 10 11 13 14 15 17 19 20 20 21 21 23 23 20 19 19 20 20 20 19 20 21 19 17 17 17 17 17 16 16 15 15
40 38 38 37 37 38 38 36 36 36 36 36 35 33 33 32 31 31 30 29 27 25 26 28 30 30 29 29 29 29 29 30 31 30 29 28 27 25 22 21 21 21 20 20 19 18 17 16 15 14 13 12 10 9 11 13 14 15 16 18 19 20 20 22 24 24 22 23 23 23 24 24 22 22 21 18 16 16 15 15 15 16 18 18 20
39 38 38 38 37 37 37 35 35 35 34 32 31 30 31 32 31 30 27 25 24 23 22 24 26 27 27 27 27 25 25 27 28 29 28 27 27 26 24 21 19 18 18 19 19 19 19 18 16 15 16 17 15 14 16 17 16 15 17 19 20 21 22 23 24 23 23 23 25 26 28 27 25 25 24 19 15 14 13 15 18 21 23 23 24
36 38 37 36 36 37 38 36 34 33 31 30 30 31 31 30 28 26 23 21 22 22 21 22 23 24 23 23 23 22 21 24 26 27 27 26 25 27 26 22 18 17 18 17 17 18 18 18 18 19 19 19 17 17 18 19 17 16 17 20 22 23 24 25 24 23 21 21 22 24 25 25 25 24 21 17 14 15 17 20 22 23 23 23 23
32 35 33 34 37 40 41 39 34 30 29 29 29 28 28 27 25 23 21 19 18 19 20 21 21 22 22 21 20 19 17 20 23 25 25 24 25 27 27 23 19 17 17 16 16 16 16 17 18 20 21 21 20 19 19 19 18 17 18 21 23 24 24 23 22 21 20 20 21 22 23 23 22 20 18 16 17 19 20 20 21 21 20 19 19
30 32 28 30 36 38 38 36 31 27 28 28 24 23 24 24 23 22 21 19 16 15 16 18 19 21 22 22 20 18 16 17 20 23 24 24 25 26 26 23 20 18 17 16 16 16 16 17 19 20 21 21 20 19 18 18 20 20 19 19 19 19 20 19 18 17 17 18 19 21 22 21 19 18 18 19 21 21 19 19 21 22 19 15 14
26 28 24 24 29 30 30 30 28 26 26 26 22 20 20 19 18 19 19 17 16 13 13 15 17 20 21 22 21 19 17 17 19 22 24 24 24 24 24 22 20 18 16 15 15 15 16 18 20 20 19 18 17 16 16 18 20 19 16 14 14 15 15 14 13 12 13 13 12 14 16 16 17 19 20 22 22 20 19 21 24 23 18 15 15
24 25 23 23 25 26 26 27 27 25 23 21 19 18 18 17 16 17 16 16 17 16 15 15 16 18 17 18 19 18 17 18 21 23 24 23 22 22 21 20 18 16 16 15 16 16 17 19 20 19 17 15 14 15 16 17 18 15 11 9 12 13 12 11 10 11 13 14 13 14 15 16 17 19 20 20 20 19 20 25 28 26 22 20 20
28 28 25 24 24 25 25 26 25 22 20 20 19 19 19 19 18 18 17 16 18 19 18 17 16 15 14 14 17 17 14 16 19 22 22 22 21 20 20 18 16 16 15 15 16 16 16 17 16 15 14 15 16 17 16 16 15 12 10 10 12 13 14 14 14 13 15 17 18 18 17 17 17 17 17 19 20 21 23 24 26 26 24 21 20
31 30 27 25 25 26 26 25 24 21 21 22 22 21 21 20 20 21 19 18 18 19 20 17 14 13 13 14 15 13 11 11 14 18 20 19 18 20 20 18 15 15 15 15 15 14 13 14 14 12 12 14 14 15 14 13 12 12 12 13 14 16 17 18 19 18 18 19 18 17 15 15 15 14 16 18 19 21 20 16 14 15 16 15 17
31 30 28 26 25 26 24 24 23 22 22 22 21 20 20 20 20 21 20 18 17 18 17 13 11 11 13 14 13 12 12 12 12 15 18 17 17 19 20 18 15 15 14 13 13 12 12 13 14 13 12 12 11 11 11 11 11 12 14 15 16 18 18 18 19 18 16 15 14 14 14 14 14 16 18 19 18 18 17 14 12 15 19 22 23
32 30 28 26 26 25 24 24 24 24 24 23 22 22 20 19 20 19 17 16 17 17 15 13 12 13 12 13 12 11 13 14 12 13 15 16 17 18 20 18 15 14 14 12 12 12 12 13 15 16 13 11 10 9 9 10 11 12 14 16 16 16 16 16 15 14 13 12 13 15 15 14 15 17 18 17 16 15 16 17 19 22 24 24 23
31 29 28 28 27 27 27 28 27 26 27 26 24 23 21 20 19 16 13 14 15 15 14 13 14 13 13 13 11 10 12 13 12 12 14 17 17 18 20 20 17 14 13 10 10 11 13 15 16 15 13 11 10 9 9 10 11 13 14 15 14 13 13 12 11 11 12 12 12 14 16 15 15 16 15 15 15 17 18 20 21 21 21 21 22
29 29 29 28 27 27 28 27 24 24 25 24 23 22 20 19 18 14 12 14 14 13 12 11 10 10 12 14 13 12 12 14 14 14 15 17 18 18 19 22 21 17 13 10 9 11 13 14 14 12 12 13 11 10 10 11 12 13 14 12 11 11 10 9 9 10 10 10 11 14 16 16 16 16 16 18 19 20 20 20 20 19 18 19 21
27 27 26 24 23 25 25 23 20 21 22 23 23 23 21 19 17 15 15 15 14 13 13 12 10 9 10 13 16 16 16 15 16 17 17 18 18 17 18 21 23 21 15 11 11 12 13 13 13 13 14 14 11 9 10 12 13 13 12 12 12 11 10 9 10 11 9 8 10 13 15 15 16 17 19 21 21 20 18 18 19 18 18 19 21
27 26 25 25 25 25 24 22 20 20 20 21 22 21 20 18 17 17 17 16 15 14 13 13 12 11 10 12 15 18 19 16 15 16 15 16 17 17 17 19 21 20 16 14 13 13 13 13 13 13 12 11 9 9 11 12 13 13 13 14 14 14 12 11 12 13 12 10 10 13 14 14 15 18 19 19 18 17 17 17 17 18 18 20 21
26 25 25 25 25 24 23 23 22 20 17 17 18 17 17 17 17 17 16 15 15 15 14 13 14 14 13 13 14 17 19 17 16 15 14 14 16 18 18 19 20 18 16 16 15 13 12 12 12 12 12 11 11 13 14 15 16 16 16 16 15 15 13 13 15 15 14 13 12 12 12 13 16 18 18 17 17 17 16 16 17 19 20 21 20
24 22 22 22 22 22 22 21 22 20 18 17 17 17 17 18 18 17 14 12 13 14 14 13 13 13 13 14 14 17 18 16 16 15 13 13 15 18 20 20 20 18 17 17 16 14 13 13 13 13 13 13 14 16 17 18 18 17 17 17 17 16 14 15 16 14 9 7 8 8 11 15 17 17 16 16 16 16 16 16 18 20 21 21 20
22 21 20 20 21 21 20 20 21 21 20 20 19 17 14 14 17 19 15 12 11 12 12 10 7 6 6 7 10 13 15 15 15 13 12 13 14 16 18 18 18 18 18 17 16 15 14 14 14 15 16 16 17 18 19 19 20 21 20 19 19 18 14 11 9 6 2 1 5 10 14 16 17 16 16 16 16 16 16 18 19 19 20 20 19
20 20 20 21 21 20 19 20 21 21 21 21 21 20 18 17 18 18 15 13 11 10 9 7 4 3 3 3 7 12 14 14 14 14 16 18 17 16 17 18 17 18 19 18 17 15 14 15 15 15 16 15 13 13 14 12 11 12 11 13 14 11 6 4 5 5 4 7 11 14 15 15 15 16 16 15 15 16 17 17 17 18 19 19 18
20 20 20 22 24 21 19 21 21 19 20 20 19 19 20 20 17 15 13 12 10 9 8 7 5 5 5 6 10 14 15 14 15 17 19 19 17 17 18 19 17 17 19 20 17 13 12 12 10 9 8 7 8 12 13 10 7 6 7 9 8 4 5 5 6 7 9 12 14 14 14 14 15 15 14 14 15 17 17 16 17 18 18 18 17
20 20 20 24 25 21 19 21 20 18 19 19 17 17 17 17 15 13 11 10 9 8 8 8 8 8 8 8 11 14 14 14 16 18 19 18 17 17 18 18 17 19 21 19 14 10 10 10 8 5 5 7 12 16 13 7 6 8 8 6 5 5 4 4 5 8 11 13 13 13 13 14 14 13 13 14 16 16 16 17 18 18 17 16 17
19 19 21 24 23 19 18 20 19 17 17 17 16 15 14 14 14 15 13 10 8 8 8 8 10 11 10 10 11 12 12 14 15 16 16 17 19 19 19 19 18 18 18 14 10 9 9 8 7 7 9 12 15 13 7 4 3 8 9 7 8 9 6 2 4 9 12 12 11 11 12 13 13 13 15 16 15 15 15 16 17 17 16 16 17
19 20 23 24 21 18 18 19 18 18 18 16 15 16 15 13 14 16 15 12 10 9 8 9 12 14 13 12 12 13 12 12 12 13 15 18 20 20 19 18 15 13 13 12 11 10 8 7 8 10 11 11 9 5 3 3 5 9 11 10 11 10 5 3 6 10 11 10 9 10 13 14 14 14 15 15 14 15 16 16 16 16 17 18 17
21 22 23 23 20 18 19 19 17 18 18 16 15 15 15 15 15 16 16 16 14 12 12 12 13 14 14 14 14 13 12 12 12 14 17 19 20 19 17 14 12 11 12 12 11 9 8 8 9 9 6 5 5 4 3 4 7 10 11 10 10 11 9 5 4 8 12 12 11 12 14 15 14 13 13 14 14 15 16 16 16 17 18 19 19
19 19 19 19 18 18 20 18 17 18 18 17 17 16 16 17 18 17 16 16 16 16 15 16 16 15 15 15 14 14 14 14 15 17 18 18 19 18 15 11 11 12 12 11 9 9 9 9 8 5 3 3 5 6 5 6 8 9 9 9 8 7 6 5 5 10 14 15 14 14 15 14 12 12 13 13 14 15 15 15 16 18 19 19 19
19 20 20 19 19 19 19 19 19 20 19 18 18 18 17 17 18 18 17 18 19 18 16 16 16 15 16 17 17 16 17 17 17 18 19 19 19 17 12 9 10 11 10 11 12 13 11 8 5 3 4 5 5 6 7 8 9 7 7 8 7 5 3 5 7 11 14 14 14 13 13 11 11 11 12 13 15 15 15 16 17 18 18 18 18
18 21 22 22 21 19 19 21 22 21 20 19 18 18 17 15 15 15 15 18 18 17 16 15 14 14 18 21 21 20 20 19 17 18 18 17 17 15 11 8 9 10 11 12 14 13 10 7 4 4 6 7 7 8 8 8 9 10 9 8 8 9 9 8 10 12 14 14 12 10 9 10 11 11 12 13 14 15 16 17 18 18 18 18 18
18 20 21 22 21 19 20 22 22 19 18 17 16 15 14 13 13 13 15 17 17 15 15 15 14 16 20 23 22 22 21 18 14 15 15 15 14 13 10 9 10 13 13 11 10 9 7 7 7 7 8 9 10 10 8 6 8 11 8 5 6 10 11 10 12 13 11 10 8 8 9 10 10 10 12 13 15 16 17 16 17 17 18 18 19
18 18 17 18 18 18 18 19 18 15 14 14 14 13 13 12 11 12 15 16 15 14 14 14 15 18 20 20 19 20 20 17 14 14 14 14 14 13 12 12 12 12 10 9 9 8 8 7 9 9 9 10 9 8 7 9 11 10 6 3 5 7 9 10 12 12 10 8 8 8 9 9 9 11 13 14 16 16 15 15 16 17 17 17 18
18 17 15 14 16 16 15 14 13 12 12 12 11 12 12 11 10 15 17 14 13 13 14 13 15 17 18 18 18 18 17 15 15 16 15 15 16 15 14 13 12 11 9 8 9 10 9 9 9 9 9 9 8 7 10 13 10 6 3 3 5 7 9 10 11 10 9 8 7 7 7 8 9 11 13 15 15 14 14 15 16 16 16 17 18
17 16 15 15 15 14 13 13 13 12 12 11 10 11 11 9 9 12 14 12 12 15 16 15 15 16 16 15 16 17 16 12 12 14 16 17 16 15 13 11 11 11 9 8 8 9 9 10 10 10 10 11 9 9 12 13 7 1 2 4 6 8 9 9 9 9 8 7 6 6 6 8 10 11 12 13 14 13 14 16 16 15 16 17 17
14 14 15 15 14 12 12 13 12 11 11 11 10 9 9 9 8 9 9 8 10 16 19 17 14 15 16 15 16 18 19 15 10 10 13 14 13 11 11 12 13 12 11 11 10 9 9 9 10 8 8 8 8 7 8 5 3 1 2 5 7 9 9 8 8 8 7 5 5 6 7 9 10 11 12 13 13 13 14 15 14 15 16 16 17
14 14 14 13 12 12 12 11 11 11 12 12 10 8 7 8 8 8 8 7 8 12 17 16 13 13 16 18 18 18 18 15 11 9 11 12 12 13 15 15 14 13 12 12 12 10 8 8 9 8 7 7 7 7 6 5 3 3 4 5 7 8 8 7 6 5 4 4 5 7 8 9 10 10 11 12 12 13 14 14 14 15 16 16 17
12 11 12 12 11 11 11 10 10 10 10 9 8 8 7 8 8 8 8 7 7 8 11 15 15 14 13 15 15 14 14 13 12 11 11 11 11 13 13 12 11 12 11 10 9 9 8 8 8 7 7 7 5 3 3 4 4 5 6 7 8 8 7 5 3 1 1 3 4 6 7 9 10 11 11 12 12 12 13 14 14 14 15 15 18
11 9 10 11 10 9 9 9 8 8 9 9 9 9 9 9 8 7 6 6 6 7 8 11 13 13 13 12 12 11 11 12 12 12 12 11 10 10 10 10 10 12 11 9 9 10 10 10 9 8 7 7 5 4 5 5 5 6 7 8 9 9 9 7 5 4 4 4 5 6 7 8 10 11 12 12 12 12 13 14 13 13 14 16 18
8 8 8 9 9 9 9 8 8 8 8 8 8 8 8 8 8 7 7 7 8 9 9 8 8 9 10 11 12 13 13 13 13 14 13 12 11 11 11 12 12 13 12 12 14 15 13 11 10 8 6 5 5 6 7 6 6 6 7 9 10 10 10 10 9 10 11 11 11 10 9 8 10 12 12 11 12 12 13 13 13 13 14 16 18
3 3 4 5 6 7 7 7 8 8 8 9 9 8 7 7 8 8 8 8 7 7 7 7 8 9 10 11 13 14 15 15 15 15 14 12 11 12 14 15 15 14 13 13 15 15 14 10 7 6 5 5 6 7 7 7 7 8 9 10 10 10 11 12 12 13 14 14 13 11 8 8 10 11 11 11 12 12 11 11 12 13 15 17 18
2 4 5 6 6 6 6 7 7 6 7 6 5 6 7 7 7 7 8 9 9 10 11 13 14 13 14 16 17 17 16 16 15 14 13 13 12 13 14 15 15 14 14 13 11 9 11 10 6 5 5 7 7 8 8 8 9 10 10 10 9 10 11 12 12 12 12 12 11 10 9 7 8 9 10 11 11 10 10 11 12 14 16 17 17
7 8 8 8 7 7 7 7 7 8 7 4 4 5 6 7 7 9 11 12 13 13 13 12 11 10 10 12 12 11 12 13 13 12 11 11 12 12 13 14 14 14 14 14 12 8 7 6 6 6 8 8 8 8 8 9 11 12 12 11 10 11 12 12 12 12 11 10 9 9 9 7 6 8 10 10 9 9 11 12 13 15 16 16 15
Wind_Direction
188 187 187 188 188 187 187 188 188 188 188 186 187 189 190 190 192 195 197 197 199 200 198 195 193 191 190 190 191 192 193 194 194 196 198 200 200 201 205 211 214 220 225 225 228 234 236 237 236 235 236 240 245 250 249 247 246 247 250 245 239 243 253 257 261 276 286 288 287 287 290 290 288 288 287 284 278 270 265 264 263 259 256 260 265
188 187 186 187 188 186 187 188 189 190 189 189 190 191 192 194 195 196 198 201 202 202 199 196 193 192 190 190 192 193 194 194 193 194 198 201 201 201 205 211 216 222 226 227 229 234 242 249 251 247 244 244 246 247 247 248 250 256 258 246 234 241 254 259 262 270 282 286 286 287 291 292 291 291 292 291 289 287 281 272 268 264 261 262 264
188 185 185 188 188 187 187 189 190 192 191 191 191 193 195 197 198 199 201 203 204 204 202 198 194 192 191 191 193 195 195 194 194 195 198 201 202 202 205 210 217 225 231 235 235 235 239 243 245 246 248 249 248 245 244 247 253 259 263 259 258 271 275 272 271 267 273 284 290 292 292 293 293 291 291 290 287 286 283 280 279 276 274 273 268
187 184 185 187 188 188 189 190 192 194 194 193 193 195 198 199 201 203 203 204 204 205 203 200 196 193 191 192 194 195 195 194 193 195 197 200 201 202 203 207 213 219 225 231 234 234 235 237 238 242 246 249 249 246 245 247 250 254 259 263 269 272 272 272 274 270 267 279 290 293 293 291 291 290 287 283 282 282 280 281 282 279 278 281 276
187 184 185 188 190 190 190 191 194 196 197 197 197 197 197 200 203 204 204 203 204 205 204 200 198 195 192 193 194 194 195 194 192 193 196 198 199 201 203 207 212 216 220 226 230 230 232 236 238 237 241 248 248 245 249 254 254 254 258 259 255 257 265 270 272 270 267 270 279 287 290 287 286 288 286 282 280 279 279 281 283 281 279 280 278
187 185 186 189 191 191 191 193 196 197 198 199 199 198 199 201 202 204 205 205 205 207 206 202 199 197 196 196 196 194 194 194 193 194 195 198 199 200 204 208 213 217 220 225 230 230 231 236 240 237 239 248 246 240 250 266 267 265 268 263 253 257 267 269 270 272 271 269 271 276 279 278 279 283 286 282 275 274 278 282 283 283 281 278 277
186 186 188 191 192 192 193 196 197 197 198 199 199 200 203 204 203 205 207 207 207 209 208 205 202 201 199 199 198 197 195 194 194 194 194 196 198 200 203 208 214 217 219 224 229 229 228 230 234 237 242 252 255 250 249 256 265 271 268 260 257 260 263 265 270 273 270 266 265 266 268 273 278 281 283 281 276 275 278 278 280 283 282 279 281
185 187 190 192 191 192 195 198 198 198 199 200 201 203 206 207 207 207 208 208 210 212 211 207 204 202 200 200 199 198 196 194 194 194 194 194 196 200 203 207 213 217 217 222 227 230 231 226 226 235 240 245 251 250 241 242 254 264 260 255 255 258 262 267 271 272 269 267 267 267 269 274 278 279 280 279 275 275 277 273 272 277 280 281 285
186 188 190 192 192 193 196 198 199 200 200 202 203 205 206 207 209 210 209 210 211 212 212 208 203 200 199 199 199 199 197 197 197 197 196 196 196 198 202 207 211 214 217 220 223 227 230 226 225 232 237 240 243 241 237 241 254 260 261 259 259 263 269 272 271 268 266 266 268 271 270 271 275 279 279 276 274 277 283 281 276 278 283 286 288
187 186 189 192 192 193 195 197 199 199 201 203 205 205 206 207 210 212 212 214 213 211 209 205 200 201 202 200 199 199 200 201 201 200 200 199 197 196 200 206 209 211 214 216 219 222 228 231 233 234 235 238 242 243 243 251 259 262 262 262 264 266 266 263 261 262 263 265 269 271 268 268 273 279 279 280 282 285 286 286 285 289 293 292 290
186 187 190 193 193 194 194 196 198 199 200 202 204 206 206 208 211 213 215 217 216 210 205 198 198 206 207 201 199 201 203 204 204 203 203 202 200 198 199 204 208 210 210 212 216 221 228 234 237 240 240 238 242 248 252 258 263 265 265 267 269 268 263 260 263 265 265 268 272 272 270 270 275 281 285 288 288 287 287 290 292 294 294 290 288
184 187 189 190 190 192 193 194 197 199 199 201 204 206 208 208 209 210 213 216 213 207 201 197 200 209 210 203 200 203 205 206 207 205 204 204 202 200 201 205 208 209 210 212 216 220 227 233 237 242 242 236 241 260 272 273 271 269 269 270 270 267 264 263 266 268 269 272 274 272 272 275 280 284 287 290 290 289 289 289 289 289 289 287 285
183 186 187 189 189 190 192 192 195 197 199 201 203 205 204 203 204 205 207 210 208 204 202 201 203 209 210 207 206 205 206 209 209 206 205 206 204 202 204 207 208 209 211 212 214 215 219 225 231 234 231 230 242 266 278 276 274 274 274 270 266 266 266 265 264 266 270 271 269 268 271 276 280 283 283 286 291 293 289 287 288 288 287 286 284
183 186 187 190 191 190 190 192 193 195 196 196 198 198 200 203 206 207 208 209 208 206 204 205 207 209 209 209 208 207 208 211 210 206 205 207 209 208 208 207 209 212 213 213 215 217 220 225 229 231 234 241 250 257 258 258 259 263 268 269 269 270 271 267 262 262 266 269 269 271 274 276 279 281 282 283 285 287 289 291 292 291 288 287 286
182 187 188 187 187 186 187 188 189 189 188 189 191 194 200 205 207 207 207 208 209 209 206 205 205 205 204 205 203 204 209 211 207 203 204 209 213 213 211 211 214 217 216 215 219 224 227 228 227 230 238 248 252 249 246 246 246 250 257 263 269 272 273 270 267 265 267 272 274 276 280 283 283 283 282 279 275 281 291 294 293 292 289 287 285
178 182 182 180 181 182 183 184 182 181 183 186 189 194 200 204 203 202 203 204 207 209 207 205 203 201 203 204 200 202 209 209 203 200 204 211 214 213 213 214 219 221 221 223 226 226 224 221 223 232 242 249 251 247 243 243 244 251 258 262 266 271 275 276 277 277 278 278 277 277 280 280 279 278 279 279 283 290 296 295 291 287 283 281 280
175 177 172 170 175 178 180 182 179 178 182 185 188 194 199 201 202 203 203 202 201 198 195 198 200 203 207 208 203 202 206 207 205 203 205 209 210 211 215 217 220 225 227 227 225 223 221 223 231 240 244 245 247 248 245 243 246 254 260 263 266 272 277 281 284 287 288 287 284 281 280 278 277 282 287 289 292 295 291 283 280 277 272 270 272
169 169 159 159 169 171 171 174 173 174 180 186 192 197 200 202 205 207 206 204 205 199 190 192 199 202 205 204 200 198 201 206 210 208 206 206 208 211 215 217 219 223 225 224 224 222 223 230 237 238 238 241 246 247 242 240 245 253 258 262 268 274 278 283 286 290 293 293 291 288 285 284 286 289 291 291 291 288 276 268 268 267 264 266 271
158 158 150 156 165 164 162 166 169 171 174 182 189 194 198 201 204 206 206 209 214 214 208 205 201 196 193 192 191 194 200 206 210 209 206 205 207 210 213 213 214 218 221 225 228 224 224 232 236 234 233 239 243 244 243 243 246 251 255 264 272 274 276 284 294 300 300 299 302 300 295 292 291 290 291 290 289 284 273 268 267 263 259 262 268
154 155 150 149 154 158 162 166 167 169 171 176 181 185 188 190 190 192 197 204 210 212 216 215 200 184 184 190 191 194 197 199 201 204 205 205 207 210 211 210 212 216 217 217 217 214 218 228 237 241 242 243 245 247 248 248 248 250 255 264 271 272 275 285 296 304 305 305 306 305 298 293 289 286 286 287 286 283 278 275 272 265 259 263 273
151 153 148 143 146 154 160 162 164 167 171 177 181 183 182 184 185 185 188 194 197 203 211 210 191 182 193 198 192 188 188 191 193 197 201 204 208 212 211 209 211 213 211 211 212 213 218 225 235 247 245 238 240 244 245 247 253 260 262 262 264 268 277 287 294 299 303 305 304 300 296 295 294 293 292 292 290 289 290 291 288 282 284 298 309
148 148 145 144 151 157 159 160 164 168 170 173 174 174 179 183 182 181 185 190 192 195 201 197 189 195 198 190 181 181 188 194 196 197 201 205 211 214 212 211 213 212 212 216 216 215 219 222 229 239 237 228 231 239 243 250 258 262 265 267 269 274 280 287 292 297 301 300 293 287 285 290 295 295 292 292 293 298 307 312 309 305 308 311 311
144 144 145 147 152 158 160 162 165 165 166 166 163 165 174 178 176 179 185 185 180 179 183 190 198 197 181 168 171 176 180 186 193 200 205 207 212 214 210 209 210 209 211 216 213 211 217 220 223 231 234 227 229 238 247 257 260 263 269 272 273 277 281 287 292 295 293 287 284 287 288 289 291 290 288 292 299 306 310 310 306 305 305 303 300
141 143 148 152 154 157 159 162 164 163 163 161 159 163 168 165 165 172 174 165 161 163 173 192 201 187 166 161 167 166 173 184 193 202 207 207 210 213 210 208 208 202 201 212 216 212 216 219 223 232 235 227 230 243 254 261 264 266 268 267 268 275 281 285 285 280 278 282 290 298 300 302 303 302 303 308 312 311 310 309 306 303 299 296 294
143 145 150 153 154 153 151 153 156 158 160 158 154 156 155 152 157 164 159 152 150 154 169 190 201 184 165 165 167 164 172 184 188 193 202 207 211 214 213 214 213 207 202 215 223 214 212 217 225 232 228 224 231 244 256 262 265 265 264 262 265 274 277 275 270 266 274 294 306 307 305 304 305 308 310 311 311 311 308 304 299 295 294 296 297
140 143 144 143 142 141 142 144 144 149 154 152 149 150 149 150 160 166 160 154 154 162 173 183 193 195 182 177 174 166 165 177 188 193 200 206 210 214 214 215 216 215 214 220 220 213 212 218 222 223 221 225 233 244 254 259 257 255 257 258 258 260 262 261 257 254 259 277 290 294 296 297 300 304 306 306 305 303 300 296 294 296 300 303 302
134 134 133 132 133 136 141 144 144 146 148 144 143 148 153 158 166 169 166 160 160 170 180 181 186 193 192 191 183 166 161 175 192 196 199 203 207 210 209 208 210 212 215 216 213 212 215 217 218 219 219 223 233 241 246 249 248 247 250 251 252 255 255 251 247 252 263 271 276 282 286 290 299 302 302 301 299 298 300 299 298 300 302 301 299
130 129 129 131 135 140 143 145 146 145 143 140 143 153 165 174 175 172 172 170 168 177 186 186 188 189 189 198 192 167 161 175 191 198 202 203 203 203 202 202 204 202 202 205 205 205 209 207 205 212 219 225 231 234 237 241 244 244 246 248 251 253 250 244 247 261 273 269 263 271 285 298 304 302 299 298 298 300 303 303 301 301 301 297 292
126 128 131 134 139 143 144 144 144 144 145 149 154 162 177 185 176 164 163 166 172 183 188 186 190 190 188 198 194 170 162 173 188 199 207 206 205 204 200 202 204 197 191 196 199 196 197 201 205 212 221 225 226 229 233 235 234 236 240 243 243 243 244 248 256 265 268 252 252 281 305 309 304 299 297 299 299 302 306 305 302 300 297 292 286
128 132 137 142 147 149 149 149 149 149 152 155 151 146 149 160 158 155 154 153 162 179 180 173 180 179 167 185 193 180 173 176 183 196 203 198 200 203 200 201 201 192 187 194 198 194 194 202 206 208 211 215 219 226 231 228 223 225 231 232 232 238 250 266 278 288 309 337 316 315 311 304 299 297 298 299 300 305 308 304 301 299 298 295 292
136 141 147 149 150 154 156 157 157 155 154 155 151 139 126 122 131 143 151 150 153 164 165 161 169 163 141 169 183 176 172 175 182 192 193 189 191 196 195 195 194 190 189 191 192 193 201 210 211 212 217 223 230 241 249 244 225 221 231 241 247 255 273 321 353 8 5 343 328 317 307 300 295 293 294 297 303 308 307 305 305 305 302 299 299
145 149 151 149 152 159 164 166 165 156 148 150 152 143 130 121 118 126 141 150 156 161 162 164 171 171 173 182 174 165 164 174 185 189 188 189 194 195 193 193 195 194 191 188 189 203 224 234 233 230 231 243 260 272 279 280 272 274 277 270 276 321 20 9 351 353 346 333 319 303 293 290 288 291 299 307 310 308 307 309 311 308 303 305 310
152 153 149 148 157 168 168 166 166 156 147 149 152 149 144 137 129 129 137 148 163 173 175 177 178 174 172 172 172 169 166 171 182 188 190 194 198 193 189 189 188 186 184 184 194 219 235 241 246 243 241 251 259 268 279 283 274 284 287 274 286 317 309 294 330 345 332 315 296 280 281 291 297 305 312 311 307 306 309 313 312 310 310 316 319
154 152 147 150 163 169 161 160 164 158 152 155 157 158 160 156 151 151 152 154 167 184 193 192 185 180 173 165 165 167 165 166 176 186 192 196 195 188 182 178 178 181 184 188 204 225 229 237 251 260 265 263 257 261 287 337 327 306 308 312 311 296 268 247 0 338 317 303 291 288 299 308 310 310 308 303 303 308 314 315 314 315 321 322 318
147 147 148 154 165 164 158 164 167 158 157 167 172 170 170 166 162 165 170 171 169 168 175 182 179 177 177 171 164 164 167 169 176 186 193 193 189 184 179 176 177 186 194 199 210 224 233 246 253 254 263 270 268 271 319 343 322 309 306 307 305 299 301 29 14 336 321 313 303 304 309 307 303 302 302 304 310 316 317 316 317 321 323 319 316
144 148 152 161 169 163 158 163 163 155 157 170 177 176 175 173 172 176 180 177 165 153 156 166 167 168 174 177 171 168 169 172 178 186 189 189 186 182 179 177 180 188 195 204 217 228 235 243 249 253 266 300 324 339 338 306 292 289 291 295 299 301 314 343 347 319 312 307 304 305 301 296 296 301 304 309 317 318 316 317 321 324 321 315 312
150 154 157 160 160 153 150 156 158 155 158 169 178 181 180 177 176 177 176 167 155 149 155 161 159 158 165 170 170 169 169 172 176 180 180 182 185 185 182 186 194 194 194 201 213 218 221 229 242 258 282 308 310 309 305 293 282 277 287 299 296 290 307 328 313 297 296 297 297 291 283 284 296 306 310 315 317 315 317 323 325 321 316 314 314
151 155 155 151 151 153 156 159 158 157 162 172 180 183 183 181 179 178 170 157 149 148 154 158 158 159 161 162 163 165 165 165 168 173 177 181 185 186 191 207 217 211 206 207 210 214 222 229 231 236 244 253 266 269 271 280 288 296 311 313 299 291 335 340 306 286 281 283 282 276 275 289 307 312 313 316 315 315 322 326 320 314 314 317 320
152 158 158 157 160 164 161 156 156 161 171 178 181 182 182 183 184 180 163 147 142 146 153 155 157 162 163 160 160 161 162 163 166 172 178 183 187 193 205 222 228 228 225 216 208 210 216 221 223 232 238 237 241 246 254 274 295 299 294 290 297 316 334 328 297 277 267 266 271 278 291 304 309 312 315 316 315 317 319 316 313 314 317 320 321
165 166 163 160 159 156 151 151 155 164 173 176 179 182 179 180 187 178 155 142 142 149 153 155 159 167 169 168 168 167 166 167 171 175 180 187 193 203 215 224 231 237 232 215 200 202 208 215 227 238 242 241 241 246 255 272 285 286 283 287 306 311 311 300 286 279 273 271 282 299 305 304 310 318 318 314 311 310 309 310 316 321 321 321 323
157 153 153 155 151 145 146 152 159 168 175 177 179 180 178 182 181 156 140 142 150 150 150 156 166 174 177 177 178 176 173 172 176 179 181 189 196 203 211 219 231 241 233 209 198 203 210 220 227 231 239 246 242 242 257 266 267 271 282 322 319 297 285 278 277 277 278 279 285 292 296 303 315 317 311 306 305 307 311 318 322 322 321 325 328
139 135 136 140 141 142 151 161 164 169 175 178 176 173 175 182 167 144 142 154 159 148 147 156 166 176 184 186 184 182 177 176 182 184 183 191 201 204 204 210 226 240 234 215 204 204 212 228 232 231 244 252 244 240 253 258 259 263 286 305 297 282 272 271 272 275 280 282 284 290 300 311 315 309 303 303 308 314 322 322 321 322 326 328 327
137 132 131 136 142 150 161 169 170 170 173 173 169 164 163 167 158 149 155 166 159 151 156 163 164 172 185 190 189 189 188 188 194 194 192 198 207 207 202 205 219 229 230 225 214 209 217 232 236 240 250 252 247 251 254 248 239 242 290 278 275 274 272 271 275 285 292 294 297 307 315 314 310 305 305 309 314 321 323 319 320 328 330 326 326
138 140 146 156 161 157 154 157 160 160 154 147 144 147 152 155 155 158 167 173 159 151 155 160 165 176 185 188 193 201 205 208 212 210 208 209 210 209 211 215 215 214 219 226 226 220 223 235 244 253 257 250 254 275 279 258 213 198 261 266 266 269 272 272 271 278 290 304 320 326 320 313 308 307 310 314 318 320 319 320 325 329 327 326 328
148 153 158 160 157 150 150 153 146 135 130 130 132 140 151 158 163 168 178 193 184 161 152 151 159 174 183 188 195 204 210 212 216 224 227 221 210 206 213 216 211 206 210 220 223 222 226 240 253 267 276 273 276 288 294 293 272 232 234 251 258 260 267 274 273 276 293 316 322 315 307 305 308 309 311 313 316 317 318 321 325 326 326 330 328
147 151 156 155 151 151 154 146 129 126 136 146 152 161 173 182 190 193 191 193 197 181 161 156 160 167 177 188 196 202 206 210 216 229 236 231 217 212 214 213 204 200 204 212 222 228 231 234 240 254 272 284 288 275 268 282 279 248 237 245 249 253 264 275 275 278 306 316 316 310 306 308 309 307 307 310 314 318 320 320 321 325 329 330 323
152 155 157 157 154 149 143 136 136 153 172 177 177 183 191 192 193 195 190 182 188 195 190 182 179 177 177 182 189 197 205 211 217 224 231 233 228 221 215 210 201 194 194 207 225 229 224 217 217 232 260 279 276 244 236 247 251 247 245 240 234 238 247 244 229 223 238 258 277 286 294 304 305 303 307 314 316 316 318 318 321 328 331 326 319
143 153 153 156 158 154 152 159 170 175 180 185 188 192 196 194 191 193 193 192 195 201 207 209 200 186 180 184 192 199 204 210 214 215 216 222 227 222 215 212 209 203 203 216 224 223 218 211 202 205 231 264 259 237 231 234 239 247 247 233 223 227 237 239 241 253 265 273 279 283 288 298 300 299 304 311 310 310 315 319 324 330 327 319 316
77 133 150 166 173 169 170 179 185 187 196 203 201 198 200 200 195 191 189 190 193 198 208 216 208 194 190 199 206 205 203 207 213 214 208 207 218 222 216 210 208 207 213 226 229 220 211 205 188 176 199 245 254 242 237 243 247 245 239 230 226 230 240 248 258 271 278 281 282 281 280 286 292 296 303 307 306 309 318 323 325 326 319 314 316
227 212 204 205 204 200 200 199 197 206 219 215 195 192 196 191 185 189 193 191 189 191 200 211 213 205 200 204 210 213 211 211 216 219 212 206 214 223 215 203 198 201 213 231 241 219 191 185 187 197 217 238 248 246 245 247 244 236 234 235 236 242 251 261 273 284 286 283 277 270 264 268 284 297 304 304 304 313 322 323 320 317 311 310 317
202 205 207 212 213 213 219 215 202 203 210 202 185 198 201 191 194 206 205 200 199 203 208 216 223 221 213 210 213 219 220 215 216 222 221 216 221 226 213 198 195 201 210 224 236 233 203 195 209 213 212 223 238 244 245 243 238 235 238 243 246 252 263 274 285 291 292 288 282 270 255 250 273 297 303 304 307 317 321 317 314 312 309 310 319
Height
744 747 749 753 757 760 763 766 768 770 771 772 773 774 775 776 778 780 781 782 783 785 788 791 793 795 797 800 802 804 806 807 809 811 813 814 814 815 817 819 820 821 823 824 824 825 825 825 826 827 828 829 830 831 831 832 833 833 834 834 835 835 836 836 836 836 836 836 835 834 834 833 832 831 831 829 828 827 826 826 825 825 824 824 823
739 742 745 750 753 756 760 762 764 766 767 768 769 770 772 773 775 777 778 779 780 783 786 789 791 793 795 798 800 802 803 805 807 808 810 812 813 814 815 817 819 820 821 822 823 823 824 824 825 826 827 827 828 829 830 831 832 832 833 833 833 834 834 834 834 834 833 833 833 832 831 831 830 829 828 827 827 826 825 824 823 823 822 821 820
734 738 742 746 749 752 755 757 760 762 763 764 765 767 768 770 772 773 774 776 779 782 785 787 789 791 794 796 798 800 802 803 805 806 808 810 811 812 813 814 816 818 819 820 821 822 822 823 824 825 826 826 827 828 828 829 831 831 831 831 832 832 832 832 832 832 831 830 830 830 829 828 828 826 826 825 825 824 823 822 822 821 819 818 817
730 734 738 742 745 748 750 752 755 757 758 760 761 763 764 766 768 770 772 774 777 780 782 784 786 789 791 794 796 798 799 800 802 804 805 807 809 810 811 812 813 815 817 818 820 820 821 821 822 823 824 825 825 826 827 828 829 830 830 830 830 831 831 831 831 831 830 829 827 827 826 826 825 824 823 823 822 822 821 820 819 818 817 816 814
725 729 733 737 740 742 745 747 750 752 754 756 757 759 760 762 765 767 769 772 774 776 778 781 783 785 787 790 792 795 796 798 799 801 803 805 806 808 809 810 811 812 814 816 817 818 819 820 821 822 823 823 824 824 825 826 827 828 829 829 829 829 829 829 829 829 828 827 825 825 824 823 822 821 821 820 819 819 818 817 816 815 814 813 812
720 724 728 731 733 736 739 741 744 746 749 751 753 755 757 759 761 764 766 769 771 772 774 777 779 782 784 786 789 792 793 795 796 798 800 802 804 805 806 808 809 810 811 813 815 816 816 817 819 820 821 821 822 822 823 824 825 826 827 827 827 827 827 827 828 827 826 825 824 822 821 821 820 819 818 818 817 816 815 814 813 812 811 810 808
715 719 722 724 727 731 733 736 738 741 744 746 749 751 753 756 758 760 762 765 767 768 770 773 776 778 781 783 786 789 791 792 794 795 797 799 801 802 803 805 806 807 808 810 812 813 813 814 816 817 818 819 820 820 821 822 823 823 824 825 825 825 825 825 825 825 824 823 822 820 819 818 818 816 816 815 814 813 812 811 809 808 808 807 806
711 714 717 719 722 725 728 731 734 737 740 742 746 747 749 752 754 756 758 761 763 764 766 770 773 776 779 780 783 786 788 789 790 792 794 795 797 799 800 802 804 805 806 807 810 811 811 812 813 815 816 817 818 818 819 819 820 821 821 822 822 822 822 823 823 822 822 820 819 818 817 817 815 814 814 813 811 810 810 809 807 806 805 804 803
705 708 711 714 717 720 724 727 730 734 736 739 741 742 744 747 749 752 755 757 759 761 763 766 770 774 777 779 781 784 785 786 786 787 789 790 792 795 797 799 800 802 803 805 807 808 809 810 811 812 813 814 815 816 816 817 818 818 819 820 820 820 820 820 820 820 819 817 816 815 815 814 812 812 811 810 809 807 807 806 805 803 803 801 800
699 702 706 709 713 716 720 723 727 729 731 733 736 737 740 743 746 749 752 754 756 758 761 765 769 773 776 776 778 780 781 782 782 783 784 786 788 790 793 795 797 798 800 801 803 805 807 808 809 810 810 811 813 814 814 814 815 816 817 817 817 817 817 817 817 816 815 814 813 813 811 810 809 809 808 807 806 806 805 804 802 801 801 799 797
694 697 700 704 708 712 716 719 722 725 727 729 732 734 737 740 743 746 749 752 755 757 761 764 768 772 774 773 773 775 776 778 778 780 782 785 787 788 789 792 794 795 796 798 800 802 804 806 807 808 809 809 810 811 812 813 813 813 814 813 813 813 813 813 812 812 812 811 810 809 808 806 806 806 805 804 804 803 802 802 801 800 799 797 795
689 692 696 700 704 707 711 714 718 721 723 726 729 732 735 738 741 745 747 750 754 757 759 760 762 766 770 770 769 770 772 774 775 777 780 783 786 787 788 790 791 792 793 795 797 798 801 803 805 807 808 807 808 810 811 812 812 811 811 811 811 810 810 810 809 808 809 808 807 806 805 804 803 803 803 802 801 801 800 800 799 798 797 796 793
684 688 691 696 699 702 707 710 714 717 720 724 727 730 733 736 739 742 745 748 752 755 757 758 760 763 766 768 768 769 771 772 773 776 778 781 784 786 787 788 789 790 792 793 794 796 798 800 803 805 805 805 805 808 809 810 809 808 808 808 808 807 807 806 805 805 805 805 804 803 802 802 801 801 801 801 800 799 798 798 797 796 795 794 791
680 683 687 691 694 698 703 706 710 715 718 722 724 727 730 734 737 741 744 748 751 753 756 758 760 763 764 767 769 770 771 772 773 775 777 780 783 784 785 786 787 789 790 791 792 793 795 798 800 802 803 803 804 805 805 805 804 804 804 804 805 805 804 803 802 802 801 801 801 800 799 800 799 798 798 799 798 798 797 796 795 794 792 790 789
675 679 683 686 689 693 698 703 708 712 715 718 721 725 729 733 737 740 743 746 749 751 754 756 758 761 763 765 767 768 770 771 772 773 776 778 780 782 783 785 786 787 789 790 791 792 793 796 798 799 800 801 801 802 802 802 802 801 801 801 802 802 801 800 800 799 799 799 798 797 797 797 797 796 796 796 796 795 795 794 792 791 789 787 785
672 675 679 682 685 689 694 699 704 708 711 716 720 724 728 732 735 739 741 744 747 749 752 754 756 759 762 763 765 767 768 769 771 772 774 776 778 780 781 783 784 786 787 789 790 791 793 795 796 797 797 797 798 798 799 800 800 799 798 798 799 799 798 798 798 797 797 796 796 795 794 794 794 794 794 794 793 793 792 791 790 788 786 785 782
669 672 675 679 683 688 692 697 701 706 710 715 720 724 727 731 734 737 740 744 746 749 751 753 755 757 759 761 763 765 766 768 770 771 773 775 776 778 779 781 783 785 786 788 789 790 792 793 793 794 794 795 795 796 797 798 797 797 796 796 797 797 797 797 796 795 795 794 793 793 792 792 792 792 792 791 791 791 790 788 787 785 784 782 779
667 670 674 678 683 687 691 695 701 705 710 715 719 723 727 732 735 738 741 745 747 750 751 752 753 754 755 757 759 761 764 766 768 770 771 773 774 776 778 779 782 784 785 786 788 789 790 791 791 792 792 793 794 794 795 796 796 795 795 795 796 796 796 796 795 794 793 791 791 791 790 790 790 789 789 789 788 788 787 785 784 783 782 780 777
665 669 674 679 683 688 691 695 701 705 710 714 719 723 727 731 734 737 741 744 747 749 750 751 752 752 753 755 757 759 761 763 765 767 769 771 773 774 776 778 780 782 783 784 786 787 788 788 788 789 790 791 792 793 793 794 794 794 794 794 795 795 794 794 793 792 791 789 789 789 788 788 788 787 786 786 785 784 783 782 781 780 779 777 775
662 668 674 679 684 688 692 697 701 705 710 714 718 722 725 728 731 734 737 741 744 747 749 751 752 752 753 755 756 757 758 759 762 765 767 769 772 773 775 777 779 780 781 782 783 784 785 786 786 787 788 789 790 791 792 792 792 792 793 793 793 793 792 792 791 790 789 788 787 786 786 785 785 784 784 783 782 781 780 778 778 777 776 775 773
662 668 673 678 683 687 691 696 700 704 709 713 716 720 722 725 728 730 733 737 740 744 747 748 749 750 752 754 755 755 756 758 761 763 765 768 770 771 773 775 777 778 779 780 781 782 783 783 784 785 786 787 788 789 789 790 790 790 790 791 791 791 790 790 789 788 787 786 785 784 784 783 783 782 782 781 780 779 778 776 776 775 774 773 772
663 668 672 677 682 687 691 696 701 705 710 714 717 719 722 724 726 728 730 733 735 740 744 746 747 749 750 752 753 753 755 756 759 762 764 766 768 769 771 773 775 776 777 778 779 780 781 782 782 783 784 785 786 787 787 788 788 788 789 789 789 789 789 788 787 786 785 784 784 783 782 782 781 781 780 779 778 777 776 775 773 773 772 772 771
662 667 672 677 683 688 692 697 701 705 709 712 715 719 723 725 726 728 730 731 733 738 742 745 747 748 749 751 752 753 754 756 758 760 762 764 766 767 769 771 773 774 775 776 777 778 779 780 781 782 783 783 784 785 786 786 786 787 788 788 788 788 787 786 785 784 783 783 782 782 781 780 780 779 778 777 777 776 774 773 772 771 771 770 769
662 668 673 679 684 688 692 695 699 702 705 708 712 717 722 725 727 730 731 731 733 738 742 745 747 747 748 750 751 752 754 755 757 759 761 763 764 766 768 769 770 772 773 774 775 777 778 779 779 780 781 782 783 784 784 785 785 786 786 786 786 786 785 784 783 783 782 782 782 781 780 779 779 777 777 776 775 774 773 772 771 771 770 769 767
664 669 675 680 684 687 691 695 699 702 704 707 710 715 720 723 727 730 731 731 734 738 742 745 745 745 746 748 749 751 752 754 756 758 759 761 762 764 766 767 768 770 771 772 774 775 776 777 778 778 779 780 781 782 783 784 785 785 785 785 785 784 783 782 781 781 782 781 781 780 779 779 778 777 776 774 773 772 772 771 770 769 768 767 765
668 672 677 681 685 689 693 697 702 705 706 706 707 712 717 721 724 727 729 730 734 738 741 743 744 744 744 745 747 749 750 752 754 756 757 759 760 762 763 765 766 768 770 771 773 773 774 776 776 777 778 779 780 782 782 783 783 784 784 784 783 782 781 781 780 780 780 779 779 779 778 778 777 776 775 774 772 771 770 769 768 767 766 765 763
669 673 677 681 685 689 694 699 703 706 708 707 708 712 717 721 724 726 727 729 732 736 739 741 741 742 742 743 744 746 748 750 752 753 755 757 758 760 761 763 765 767 769 770 771 772 773 775 776 777 778 779 780 780 781 781 781 781 782 781 780 780 779 779 779 778 777 777 777 777 777 776 776 775 774 773 771 770 769 768 767 766 765 763 761
669 673 677 681 685 689 694 697 701 706 710 710 711 714 719 723 725 725 726 727 731 734 737 738 739 740 740 741 743 744 746 748 750 752 753 755 757 759 760 762 764 766 768 769 770 771 772 774 775 776 777 778 778 779 779 779 779 779 779 779 778 778 777 776 776 775 775 775 775 775 775 775 774 773 772 771 770 769 768 767 766 764 763 761 758
672 676 680 683 687 692 695 696 699 704 709 710 711 715 719 722 723 723 724 726 729 733 735 736 737 738 738 739 741 742 744 747 749 750 752 754 755 757 759 761 763 765 767 767 768 770 772 773 774 775 776 776 777 776 776 776 776 776 776 776 775 775 774 774 773 773 773 773 773 774 774 774 773 772 771 770 769 768 767 766 764 762 760 758 756
674 678 682 686 690 693 695 696 698 702 707 709 711 714 718 720 720 721 723 727 729 732 733 734 735 736 737 738 739 740 743 745 747 749 751 753 755 757 758 760 762 763 765 766 767 769 771 772 772 773 774 774 774 773 773 772 772 772 772 772 773 772 772 772 772 771 771 772 773 773 773 773 772 771 770 769 767 766 765 764 762 760 758 756 753
674 678 682 687 691 694 696 697 699 702 705 708 711 714 716 718 719 721 724 727 729 731 732 733 734 735 736 738 739 740 742 744 746 749 750 752 754 756 758 760 761 762 764 765 767 768 769 769 770 770 771 771 770 771 770 768 768 769 770 770 771 770 770 770 770 770 771 771 772 772 772 771 771 769 768 767 766 764 763 761 760 758 756 754 752
673 677 681 685 688 693 696 698 700 702 705 708 711 713 715 717 719 722 724 727 729 731 732 733 735 736 737 738 739 740 742 743 746 748 750 752 754 755 757 758 759 761 762 764 766 767 767 767 767 767 768 767 767 768 767 766 766 767 768 768 769 769 769 769 769 769 770 770 771 771 771 770 769 768 767 766 764 763 761 759 758 756 754 752 751
675 678 681 684 688 693 696 697 700 702 705 708 712 713 715 716 718 721 724 726 728 730 731 733 735 736 737 738 739 740 741 743 745 747 749 751 752 753 755 757 759 760 762 763 764 765 765 766 765 765 765 765 766 766 765 765 765 766 766 767 767 767 768 768 768 768 768 769 770 770 769 768 768 766 765 765 763 761 760 758 756 754 752 751 750
676 679 681 684 689 693 695 697 699 702 705 709 712 714 715 716 717 720 723 726 729 731 732 733 734 736 737 739 739 740 742 743 745 747 749 750 751 753 754 757 759 760 761 762 763 764 764 764 764 764 764 764 765 765 764 763 764 765 766 766 766 767 767 766 766 767 768 768 769 768 768 767 766 765 764 763 761 760 759 757 755 753 752 750 749
677 680 682 685 689 692 695 697 698 700 703 707 711 713 715 716 717 720 723 725 728 730 731 733 734 736 737 738 739 740 742 743 745 747 748 749 751 752 754 756 758 759 760 761 762 762 763 763 763 763 763 763 763 763 762 763 764 765 765 765 766 766 766 765 765 767 768 768 768 768 767 767 765 764 763 762 760 759 757 756 754 753 751 750 748
678 681 683 687 689 692 694 696 697 699 702 707 710 713 714 716 718 720 722 725 727 729 730 732 733 735 737 738 739 740 742 743 745 746 748 749 750 752 754 755 757 758 759 760 761 761 761 762 762 762 762 762 762 762 762 763 764 764 765 765 765 765 764 763 764 766 768 767 767 767 766 765 764 763 762 761 759 758 757 755 754 752 751 749 747
680 682 685 688 689 691 693 695 696 698 702 707 710 712 714 716 717 719 721 723 725 727 729 730 732 734 735 737 738 740 741 743 744 746 748 749 750 751 753 755 756 757 758 759 759 760 760 760 760 760 760 760 761 762 762 763 764 764 764 764 764 764 763 763 764 766 766 766 766 765 765 764 763 762 761 760 759 758 756 755 753 752 750 748 746
682 683 685 688 690 691 694 696 696 698 702 707 710 711 713 714 716 717 719 721 722 725 727 729 731 732 734 735 737 739 741 743 744 746 747 748 749 750 752 753 754 755 756 756 757 758 758 759 759 759 759 760 761 762 762 763 763 763 763 763 763 762 762 762 764 765 765 764 764 763 763 763 762 761 761 760 758 757 755 754 753 751 749 747 745
683 684 685 688 690 692 693 694 696 699 702 706 708 710 712 713 714 715 717 719 721 723 726 728 730 731 732 734 736 738 741 742 744 745 746 747 748 749 751 752 753 753 754 754 755 756 757 757 758 759 759 760 760 761 761 762 762 762 761 762 761 761 760 761 763 763 763 763 762 762 762 762 762 761 760 759 758 756 755 754 752 750 748 746 744
686 687 687 687 689 691 692 694 697 700 702 705 707 709 710 712 712 713 715 718 720 723 725 727 729 730 731 733 734 736 739 741 742 744 745 746 747 748 749 750 751 752 752 753 753 754 755 756 756 757 758 759 759 759 760 760 761 760 760 760 760 760 761 762 762 762 762 762 762 762 762 762 761 760 760 759 757 756 754 753 751 749 748 746 744
687 688 689 689 690 691 693 695 698 700 703 705 707 708 710 711 712 713 715 717 720 722 724 726 728 729 731 732 733 735 737 739 740 742 743 744 746 747 747 749 749 750 750 751 751 752 753 754 755 756 757 757 757 758 758 759 759 759 758 759 759 760 761 762 762 761 761 761 761 761 761 761 760 760 759 758 756 755 753 752 751 749 747 745 744
687 688 689 690 691 693 695 698 699 701 704 705 706 708 709 710 711 713 715 718 720 721 723 725 727 729 730 732 734 735 736 738 739 740 741 743 744 744 745 747 748 748 749 750 750 751 752 753 754 755 755 755 756 756 757 757 757 757 757 758 758 759 760 760 760 760 760 760 760 760 760 760 760 759 758 757 755 754 753 751 750 748 747 745 743
688 688 690 691 693 695 697 699 700 702 704 705 706 708 709 710 711 713 715 717 719 720 722 725 726 728 730 732 734 735 736 737 738 739 739 741 742 742 744 745 746 747 749 749 750 750 751 752 753 753 753 754 754 755 755 755 754 754 756 757 758 759 759 759 759 760 759 759 759 759 759 759 759 758 757 756 755 753 752 751 749 748 746 745 743
689 690 692 693 694 696 698 699 701 702 703 704 706 707 709 710 712 713 715 717 719 720 722 724 726 728 729 731 733 735 735 736 737 737 738 739 740 741 742 744 745 746 747 748 749 750 750 751 752 752 752 753 753 753 754 753 752 752 755 756 757 758 758 758 759 759 759 759 759 759 759 759 758 758 756 755 754 753 752 750 749 747 746 744 743
691 692 693 694 696 697 699 700 701 702 703 705 707 708 710 711 713 714 716 717 718 720 722 725 726 728 729 730 732 733 734 735 736 736 737 738 738 739 741 742 743 745 746 747 748 749 749 750 750 751 751 752 751 751 752 752 752 753 754 755 756 757 758 758 758 757 758 758 758 759 759 758 758 757 756 755 754 753 751 750 749 747 746 744 742
692 693 694 696 697 698 700 701 702 703 704 706 708 709 711 712 713 714 716 717 718 720 722 724 726 727 728 730 731 732 733 734 735 736 736 736 737 738 739 740 742 743 744 746 747 747 748 748 749 750 751 751 750 750 751 751 752 753 754 754 755 756 756 756 756 756 757 758 758 758 758 758 757 756 755 754 753 752 751 749 748 747 745 744 742
693 694 695 697 698 700 701 702 703 704 705 706 708 709 711 712 713 714 715 717 719 720 721 722 724 726 727 729 731 732 733 734 734 735 735 735 736 736 738 739 740 742 743 744 745 746 746 746 747 748 750 750 750 750 751 752 752 753 753 753 754 755 755 755 756 756 756 757 757 757 757 757 756 756 755 754 753 751 750 749 748 746 745 744 741
694 696 697 698 699 701 702 703 704 705 705 706 707 708 709 711 712 714 715 717 718 719 720 721 722 724 726 728 729 730 731 732 733 733 734 734 735 736 736 737 739 740 741 743 743 743 743 744 745 746 747 749 750 750 751 752 752 752 752 752 753 753 754 755 755 755 756 756 756 756 756 756 755 755 754 753 752 751 750 748 747 746 745 743 741
696 698 699 700 700 701 702 703 704 705 705 706 707 708 708 710 711 713 714 716 717 718 719 720 721 723 724 726 727 728 729 730 730 731 731 732 733 734 734 735 737 739 740 741 741 741 742 743 744 744 745 748 749 750 750 751 752 752 751 751 752 753 754 754 755 755 755 755 754 755 755 754 754 753 753 752 751 750 749 748 747 746 745 743 740
699 700 701 702 702 702 703 703 704 705 705 705 706 706 708 709 711 712 713 715 716 716 717 718 719 720 721 723 724 725 726 726 728 728 729 729 731 732 732 733 735 736 738 739 740 740 741 742 742 743 744 746 748 749 749 750 751 750 750 750 751 752 753 753 754 754 753 753 753 753 753 753 753 752 752 751 750 749 749 748 747 746 744 742 740
700 700 701 702 702 702 703 703 704 704 705 705 706 707 708 708 710 711 712 712 713 714 714 715 716 717 719 720 721 722 723 724 725 726 726 727 729 729 730 731 732 734 736 737 738 739 740 740 741 742 743 745 746 747 748 748 749 749 749 750 751 751 752 752 752 752 752 751 751 751 751 751 751 751 751 750 749 749 748 748 746 745 744 742 740